Regional Weather Roundup
Issued by NWS Goodland, KS

Home | Current Version | Previous Version | Graphics & Text | Print | Product List | Glossary On
Versions: 1 2 3 4 5 6 7 8 9 10 11 12 13 14 15 16 17 18 19 20 21 22 23 24 25 26 27 28 29 30 31 32 33 34 35 36 37 38 39 40 41 42 43 44 45 46 47 48 49 50
424
ASUS43 KGLD 170208
RWRGLD

GOODLAND FORECAST AREA HOURLY WEATHER ROUNDUP
NATIONAL WEATHER SERVICE GOODLAND KS
700 PM MST TUE JAN 16 2018

...OFFICIAL OBSERVATIONS...

CITY           SKY/WX    TMP DP  RH WIND       PRES   REMARKS
GOODLAND KS    CLEAR     10  -1  61 S10       30.43S WCI  -4
HILL CITY KS   CLOUDY     7  -1  70 SW5       30.58F
IMPERIAL NEB   CLEAR      8  -1  66 SE9       30.42F
MCCOOK NEB     CLEAR      7  -1  70 S7        30.51F
AKRON CO       CLEAR     17   2  51 S9        30.32F
BURLINGTON CO  CLEAR     12   1  61 S10       30.39S WCI  -1
LIMON CO       CLEAR     15   1  53 CALM      30.33S
$$

...UNOFFICIAL OBSERVATIONS...

CITY           SKY/WX    TMP DP  RH WIND       PRES   REMARKS
COLBY KS       CLEAR     10   1  67 S8        30.48F
LENORA KS        N/A      5  32 100 S5          N/A
NORTON KS      CLEAR      5  -4  66 S3        30.53
SHARON SPRINGS   N/A     10  -4  52 CALM        N/A
TRENTON NEB      N/A      5  32 100 S6          N/A
KIT CARSON CO    N/A     12  -5  47 CALM        N/A
YUMA CO        FAIR       9  -2  61 S6        30.36S
$$




USA.gov is the U.S. government's official web portal to all federal, state and local government web resources and services.